Van Lear, KY

4:19 PM EST on December 09, 2016 (GMT -0500)
Prestonsburg

Weather History for KK22 - February, 2013

Change the Weather History Date:

Tuesday, February 12, 2013

  Actual Average (KJKL) Record (KJKL)
Temperature  
Mean Temperature 44 °F -  
Max Temperature 51 °F 46 °F 71 °F (1984)
Min Temperature 36 °F 29 °F -4 °F (1981)
Degree Days  
Heating Degree Days 22    
Moisture  
Dew Point 25 °F    
Average Humidity 49    
Maximum Humidity 65    
Minimum Humidity 33    
Precipitation  
Precipitation 0.00 in - - ()
Sea Level Pressure  
Sea Level Pressure 30.06 in    
Wind  
Wind Speed 4 mph (WSW)    
Max Wind Speed 9 mph    
Max Gust Speed -    
Visibility 10 miles    
Events      
Averages and records for this station are not official NWS values.
T = Trace of Precipitation, MM = Missing Value Source: NWS Daily Summary

Daily Weather History Graph

Daily Weather History Graph

Search for Another Location

Airport or City:

Trip Planner

Search our weather history database for the weather conditions in past years. The results will help you decide how hot, cold, wet, or windy it might be!

Date:

Astronomy

Feb. 12, 2013 Rise Set
Actual Time 7:23 AM EST 6:06 PM EST
Civil Twilight 6:56 AM EST 6:33 PM EST
Nautical Twilight 6:25 AM EST 7:04 PM EST
Astronomical Twilight 5:55 AM EST 7:35 PM EST
Moon 8:23 AM EST (2/12) 9:01 PM EST (2/12)
Length of Visible Light 11h 37m
Length of Day
10h 43m
Waxing Crescent, 7% of the Moon is Illuminated
Feb 12
Waxing Crescent
Feb 17
First Quarter
Feb 25
Full
Mar 4
Last Quarter
Mar 11
New

Hourly Weather History & Observations

Time (EST) Temp. Windchill Dew Point Humidity Pressure Visibility Wind Dir Wind Speed Gust Speed Precip Events Conditions
12:15 AM 43.0 °F 39.5 °F 25.7 °F 51% 30.10 in 10.0 mi West 5.8 mph - N/A   Clear
12:35 AM 42.8 °F 37.5 °F 25.7 °F 51% 30.10 in 10.0 mi West 9.2 mph - N/A   Clear
12:55 AM 42.3 °F 37.9 °F 25.7 °F 52% 30.10 in 10.0 mi West 6.9 mph - N/A   Clear
1:15 AM 42.1 °F 39.2 °F 25.7 °F 52% 30.10 in 10.0 mi West 4.6 mph - N/A   Clear
1:35 AM 41.5 °F 37.8 °F 25.5 °F 53% 30.10 in 10.0 mi West 5.8 mph - N/A   Clear
1:55 AM 41.0 °F 39.0 °F 25.5 °F 54% 30.10 in 10.0 mi West 3.5 mph - N/A   Clear
2:15 AM 40.3 °F 38.2 °F 25.5 °F 56% 30.11 in 10.0 mi West 3.5 mph - N/A   Clear
2:35 AM 40.3 °F 37.1 °F 25.3 °F 55% 30.11 in 10.0 mi West 4.6 mph - N/A   Clear
2:55 AM 39.7 °F - 25.3 °F 56% 30.10 in 10.0 mi Calm Calm - N/A   Clear
3:15 AM 39.4 °F 35.2 °F 25.3 °F 57% 30.10 in 10.0 mi WSW 5.8 mph - N/A   Clear
3:35 AM 39.2 °F - 25.3 °F 58% 30.10 in 10.0 mi Calm Calm - N/A   Clear
3:55 AM 39.0 °F 36.8 °F 25.2 °F 58% 30.09 in 10.0 mi West 3.5 mph - N/A   Clear
4:15 AM 39.2 °F 37.0 °F 25.2 °F 57% 30.10 in 10.0 mi WSW 3.5 mph - N/A   Clear
4:35 AM 38.8 °F 35.4 °F 25.2 °F 58% 30.11 in 10.0 mi SW 4.6 mph - N/A   Clear
4:55 AM 38.3 °F 34.8 °F 25.3 °F 60% 30.12 in 10.0 mi SW 4.6 mph - N/A   Clear
5:15 AM 38.5 °F 35.0 °F 25.5 °F 60% 30.12 in 10.0 mi SW 4.6 mph - N/A   Clear
5:35 AM 37.6 °F 35.1 °F 25.5 °F 62% 30.12 in 10.0 mi WSW 3.5 mph - N/A   Clear
5:55 AM 37.6 °F 34.0 °F 25.5 °F 62% 30.12 in 10.0 mi WSW 4.6 mph - N/A   Clear
6:15 AM 37.2 °F 33.6 °F 25.3 °F 62% 30.13 in 10.0 mi WSW 4.6 mph - N/A   Clear
6:35 AM 36.7 °F 34.1 °F 25.5 °F 64% 30.13 in 10.0 mi WSW 3.5 mph - N/A   Clear
6:55 AM 36.5 °F 32.7 °F 25.5 °F 64% 30.14 in 10.0 mi West 4.6 mph - N/A   Clear
7:15 AM 36.3 °F 33.7 °F 25.3 °F 64% 30.15 in 10.0 mi WSW 3.5 mph - N/A   Clear
7:35 AM 36.0 °F 32.1 °F 25.3 °F 65% 30.15 in 10.0 mi WSW 4.6 mph - N/A   Clear
7:55 AM 36.5 °F 33.9 °F 25.7 °F 65% 30.15 in 10.0 mi WSW 3.5 mph - N/A   Clear
8:15 AM 37.4 °F - 25.9 °F 63% 30.14 in 10.0 mi Calm Calm - N/A   Clear
8:35 AM 38.5 °F 36.1 °F 26.2 °F 61% 30.16 in 10.0 mi WSW 3.5 mph - N/A   Clear
8:55 AM 39.2 °F 37.0 °F 26.4 °F 60% 30.16 in 10.0 mi West 3.5 mph - N/A   Clear
9:15 AM 40.3 °F 36.3 °F 27.0 °F 59% 30.17 in 10.0 mi WSW 5.8 mph - N/A   Clear
9:35 AM 41.0 °F 35.8 °F 27.0 °F 57% 30.17 in 10.0 mi WSW 8.1 mph - N/A   Clear
9:55 AM 41.7 °F 38.8 °F 27.3 °F 57% 30.17 in 10.0 mi WSW 4.6 mph - N/A   Clear
10:15 AM 42.1 °F 39.2 °F 26.6 °F 54% 30.16 in 10.0 mi West 4.6 mph - N/A   Clear
10:35 AM 42.8 °F 40.1 °F 26.1 °F 52% 30.15 in 10.0 mi West 4.6 mph - N/A   Clear
10:55 AM 43.7 °F 41.1 °F 25.3 °F 48% 30.14 in 10.0 mi SW 4.6 mph - N/A   Clear
11:15 AM 44.4 °F 42.0 °F 25.0 °F 46% 30.12 in 10.0 mi SW 4.6 mph - N/A   Clear
11:35 AM 45.0 °F 43.5 °F 25.2 °F 46% 30.10 in 10.0 mi WSW 3.5 mph - N/A   Clear
11:55 AM 46.9 °F - 24.6 °F 42% 30.09 in 10.0 mi ENE 4.6 mph - N/A   Clear
12:15 PM 47.5 °F - 24.8 °F 41% 30.07 in 10.0 mi WSW 4.6 mph - N/A   Clear
12:35 PM 48.0 °F - 23.9 °F 39% 30.01 in 10.0 mi North 5.8 mph - N/A   Clear
12:55 PM 49.1 °F - 22.6 °F 35% 30.02 in 10.0 mi NW 4.6 mph - N/A   Clear
1:15 PM 49.6 °F - 23.7 °F 36% 30.07 in 10.0 mi WSW 5.8 mph - N/A   Clear
1:35 PM 50.5 °F - 24.1 °F 36% 30.07 in 10.0 mi WNW 8.1 mph - N/A   Clear
1:55 PM 50.9 °F - 23.4 °F 34% 30.07 in 10.0 mi WSW 4.6 mph - N/A   Clear
2:15 PM 51.1 °F - 23.9 °F 35% 30.06 in 10.0 mi West 5.8 mph - N/A   Clear
2:35 PM 51.6 °F - 23.9 °F 34% 30.05 in 10.0 mi WNW 5.8 mph - N/A   Clear
2:55 PM 51.1 °F - 23.0 °F 33% 30.03 in 10.0 mi WSW 4.6 mph - N/A   Clear
3:15 PM 50.9 °F - 23.0 °F 34% 30.03 in 10.0 mi West 6.9 mph - N/A   Clear
3:35 PM 50.9 °F - 22.6 °F 33% 30.05 in 10.0 mi WSW 5.8 mph - N/A   Clear
3:55 PM 50.4 °F - 21.7 °F 33% 30.05 in 10.0 mi Calm Calm - N/A   Clear
4:15 PM 50.2 °F - 21.7 °F 33% 30.04 in 10.0 mi Calm Calm - N/A   Clear
4:35 PM 50.2 °F - 22.1 °F 33% 30.02 in 10.0 mi Calm Calm - N/A   Clear
4:55 PM 50.0 °F - 22.6 °F 34% 30.02 in 10.0 mi Calm Calm - N/A   Clear
5:15 PM 49.8 °F - 22.1 °F 34% 30.01 in 10.0 mi Calm Calm - N/A   Clear
5:35 PM 49.5 °F - 22.3 °F 34% 30.00 in 10.0 mi Calm Calm - N/A   Clear
5:55 PM 49.1 °F - 21.9 °F 34% 29.97 in 10.0 mi Calm Calm - N/A   Clear
6:15 PM 47.8 °F - 23.4 °F 38% 29.95 in 10.0 mi Calm Calm - N/A   Clear
6:35 PM 47.8 °F - 23.0 °F 38% 29.95 in 10.0 mi Calm Calm - N/A   Clear
6:55 PM 47.3 °F - 23.0 °F 38% 29.94 in 10.0 mi Calm Calm - N/A   Clear
7:15 PM 45.5 °F - 24.6 °F 44% 29.95 in 10.0 mi Calm Calm - N/A   Clear
7:35 PM 46.4 °F - 23.7 °F 41% 29.96 in 10.0 mi Calm Calm - N/A   Clear
7:55 PM 45.3 °F - 25.0 °F 45% 29.95 in 10.0 mi Calm Calm - N/A   Clear
8:15 PM 45.1 °F - 24.4 °F 44% 29.97 in 10.0 mi Calm Calm - N/A   Clear
8:35 PM 45.7 °F - 24.8 °F 44% 29.96 in 10.0 mi Calm Calm - N/A   Clear
8:55 PM 45.1 °F - 25.0 °F 45% 29.96 in 10.0 mi Calm Calm - N/A   Clear
9:15 PM 44.4 °F - 26.4 °F 49% 29.96 in 10.0 mi Calm Calm - N/A   Clear
9:35 PM 44.1 °F - 24.8 °F 47% 29.95 in 10.0 mi Calm Calm - N/A   Clear
9:55 PM 42.8 °F - 28.0 °F 56% 29.95 in 10.0 mi Calm Calm - N/A   Clear
10:15 PM 42.3 °F 40.5 °F 29.1 °F 60% 29.94 in 10.0 mi SE 3.5 mph - N/A   Clear
10:35 PM 40.1 °F - 27.9 °F 62% 29.93 in 10.0 mi Calm Calm - N/A   Clear
10:55 PM 40.1 °F - 28.6 °F 63% 29.93 in 10.0 mi Calm Calm - N/A   Clear
11:15 PM 41.5 °F - 27.3 °F 57% 29.91 in 10.0 mi Calm Calm - N/A   Clear
11:35 PM 39.9 °F - 28.6 °F 64% 29.90 in 10.0 mi Calm Calm - N/A   Clear
11:55 PM 40.1 °F - 28.4 °F 63% 29.90 in 10.0 mi Calm Calm - N/A   Clear